Regional Weather Roundup
Issued by NWS

Home | Current Version | Previous Version | Graphics & Text | Print | Product List | Glossary Off
Versions: 1 2 3 4 5 6 7 8 9 10 11 12 13 14 15 16 17 18 19 20 21 22 23 24 25 26 27 28 29 30 31 32 33 34 35 36 37 38 39 40 41 42 43 44 45 46 47 48 49 50

000
ASUS43 KFSD 110110
RWRSD

WEATHER ROUNDUP FOR SOUTH DAKOTA
NATIONAL WEATHER SERVICE SIOUX FALLS SD
800 PM CDT THU JUL 10 2014

NOTE: "FAIR" INDICATES FEW OR NO CLOUDS BELOW 12,000 FEET WITH NO
SIGNIFICANT WEATHER AND/OR OBSTRUCTIONS TO VISIBILITY.


SDZ001>005-009-010-012>017-110200-
NORTHWEST AND NORTH CENTRAL SOUTH DAKOTA

CITY           SKY/WX    TMP DP  RH WIND       PRES   REMARKS
BUFFALO          N/A     83  67  58 S10       29.76S
FAITH            N/A     81  68  64 S7        29.82S
MOBRIDGE       MOSUNNY   79  67  66 S5        29.78S
$$

SDZ012>016-024>037-041>051-057-063-072>074-110200-
SOUTHWEST AND SOUTH CENTRAL SOUTH DAKOTA

CITY           SKY/WX    TMP DP  RH WIND       PRES   REMARKS
RAPID CTY ARPT PTSUNNY   79  62  56 SW7       29.87R
PIERRE         PTSUNNY   81  71  71 NE5       29.74R
CUSTER         PTSUNNY   74  56  53 SE5       30.04R
ELLSWORTH AFB  PTSUNNY   80  63  55 W2        29.87R
PHILIP         PTSUNNY   85  67  54 CALM      29.79R
PINE RIDGE     PTSUNNY   79  65  62 W5        29.89R
WINNER         FAIR      87  69  54 SE15G23   29.80S
$$

SDZ004>011-016>023-039-040-110200-
NORTHEAST SOUTH DAKOTA

CITY           SKY/WX    TMP DP  RH WIND       PRES   REMARKS
ABERDEEN       MOSUNNY   79  67  66 S13       29.80F
WATERTOWN      CLOUDY    75  66  73 S12       29.88R
SISSETON         N/A     73  67  81 S9        29.84S
$$

SDZ017-020-022-023-036>040-048>070-110200-
SOUTHEAST SOUTH DAKOTA

CITY           SKY/WX    TMP DP  RH WIND       PRES   REMARKS
SIOUX FALLS    CLOUDY    80  64  58 S17G28    29.89F
HURON          CLOUDY    79  67  66 S13G20    29.79F
CHAMBERLAIN    LGT RAIN  79  72  77 SE16      29.79F
MITCHELL       PTSUNNY   83  68  60 S12G23    29.85R
YANKTON        MOSUNNY   81  68  65 S14       29.89S
$$

ABBREVIATIONS USED IN REMARKS
   TC - TEMPERATURE IN CELSIUS
  WCI - WIND CHILL INDEX
   HX - HEAT INDEX
  VSB - VISIBILITY




USA.gov is the U.S. government's official web portal to all federal, state and local government web resources and services.